Location: Chandrammap?lem
(16.9200°N, 81.0051°E)
Time: 05:36:39
(UTC+00:00)

Cosmos 2366 rocket - Pass Details

Date: 29 May 2024
Orbit: 954 x 997 km, 82.9° (Epoch: 19 June)

Event Time Altitude Azimuth Distance (km) Brightness Sun altitude
Exits shadow 21:52:02 68° 191° (S) 1,064 3.9 -27.9°
Maximum altitude 21:52:55 87° 273° (W) 1,001 3.9 -27.7°
Drops below altitude 10° 21:59:17 10° 3° (N) 2,757 6.8 -26.5°
Sets 22:01:48 0° 4° (N) 3,703 7.6 -26.0°
